Regional Weather Roundup
Issued by NWS

Home | Current Version | Previous Version | Text Only | Print | Product List | Glossary On
Versions: 1 2 3 4 5 6 7 8 9 10 11 12 13 14 15 16 17 18 19 20 21 22 23 24 25 26 27 28 29 30 31 32 33 34 35 36 37 38 39 40 41 42 43 44 45 46 47 48 49 50
000
ASUS43 KMPX 290101
RWRMN
WEATHER ROUNDUP FOR MINNESOTA
NATIONAL WEATHER SERVICE TWIN CITIES/CHANHASSEN MN
800 PM CDT THU APR 28 2016


NOTE: "FAIR" INDICATES FEW OR NO CLOUDS BELOW 12,000 FEET WITH NO
SIGNIFICANT WEATHER AND/OR OBSTRUCTIONS TO VISIBILITY. N/A MEANS
CURRENT SKY AND/OR WEATHER CONDITIONS ARE NOT AVAILABLE.

MNZ060>063-068>070-290200-
   Twin Cities Metro

CITY           SKY/WX    TMP DP  RH WIND       PRES   REMARKS
TWIN CITIES    LGT RAIN  41  37  86 NE8       30.09R FOG
ST PAUL        RAIN      41  38  89 N3        30.10R FOG
CRYSTAL        LGT RAIN  42  39  89 CALM      30.09R FOG
BLAINE         LGT RAIN  43  43 100 CALM      30.09R
EDEN PRAIRIE   LGT RAIN  40  35  83 N5        30.08R
SOUTH ST PAUL  LGT RAIN  41  39  93 NE3       30.09R
LAKE ELMO      RAIN      41  39  93 NE5       30.09R
$$
MNZ001>005-007-008-013>017-022>024-027-028-290200-
   Northwest Minnesota

CITY           SKY/WX    TMP DP  RH WIND       PRES   REMARKS
BEMIDJI        CLEAR     51  27  38 NE6       30.10R
HALLOCK        PTCLDY    55  21  26 SE8       30.14R
ROSEAU         PTCLDY    48  32  53 E6        30.15S
WARROAD        PTCLDY    45  27  49 NE6       30.16S
THIEF RVR FALL CLEAR     54  23  30 N13       30.13S
CROOKSTON      CLEAR     54  27  35 NE10      30.13R
FOSSTON        PTCLDY    52  27  37 NE9G17    30.11S
DETROIT LAKES  CLOUDY    52  27  37 E6        30.08S
MOORHEAD       CLOUDY    55  25  30 E5        30.09R
PARK RAPIDS    CLOUDY    54  25  32 NE6       30.07R
MAHNOMEN       FAIR      53  28  38 N15       30.08R
$$
MNZ006-009>011-018-025>026-290200-
   North Central Minnesota

CITY           SKY/WX    TMP DP  RH WIND       PRES   REMARKS
BAUDETTE       CLEAR     51  22  31 N10       30.13R
FLAG ISLAND    PTCLDY    50  27  40 NE7       30.15S
INTL FALLS     CLEAR     51  27  39 N6        30.12S
WASKISH        CLEAR     52  30  43 NE6       30.12S
BIG FORK       CLEAR     52  27  37 NE3       30.11S
LONGVILLE      MOCLDY    54  25  32 CALM      30.07R
GRAND RAPIDS   PTCLDY    52  21  30 E5        30.10R
CRANE LAKE     MOCLDY    48  28  46 CALM      30.13S
ORR            CLEAR     52  25  35 CALM      30.09R
COOK           CLEAR     50  27  40 CALM      30.11R
WALKER         FAIR      51  28  41 NE5       30.08R
$$
MNZ012-019>021-037-290200-
   Northeast Minnesota

CITY           SKY/WX    TMP DP  RH WIND       PRES   REMARKS
DULUTH         PTCLDY    39  24  55 E12       30.11S
ELY            PTCLDY    50  27  40 NE3       30.11R
HIBBING        PTCLDY    50  26  39 NE8       30.09R
EVELETH        CLEAR     46  27  46 SE8       30.11R
DULUTH HARBOR  MOCLDY    37  34  87 NE20      30.13S
TWO HARBORS    CLEAR     43  28  56 NE6       30.11S
SILVER BAY     CLEAR     39  25  56 NE6       30.12R
GRAND MARAIS     N/A     38  31  76 NE5       30.15R
G MARAIS ARPRT CLEAR     39  25  56 NE6       30.12S
$$
MNZ029>031-032-039>041-046>048-054>057-064-290200-
   West Central Minnesota

CITY           SKY/WX    TMP DP  RH WIND       PRES   REMARKS
FERGUS FALLS   CLOUDY    46  37  71 SW7       30.06S
WHEATON        CLOUDY    46  39  76 SW5       30.11
MORRIS         CLOUDY    45  39  81 SE6       30.09R
ALEXANDRIA     CLOUDY    43  36  76 S8        30.09R
ELBOW LAKE     CLOUDY    45  38  77 SW8       30.08S
WADENA         CLOUDY    50  34  53 CALM      30.07R
GLENWOOD       CLOUDY    41  37  87 SE5       30.10R
APPLETON       CLOUDY    43  39  87 CALM      30.09S
BENSON         CLOUDY    45  37  76 SE9       30.10R
ORTONVILLE     CLOUDY    43  37  81 CALM      30.10R
MADISON        CLOUDY    43  39  87 NE5       30.10R
WILLMAR        CLOUDY    43  37  81 E12       30.11R
$$
MNZ033>034-036-042>043-049>051-058-059-290200-
   Central Minnesota

CITY           SKY/WX    TMP DP  RH WIND       PRES   REMARKS
ST CLOUD       LGT RAIN  41  39  93 S5        30.09R
SAUK CENTRE    CLOUDY    41  38  89 SE3       30.09S
PAYNESVILLE    RAIN      40  40  99 E5        30.10S
AITKIN         CLOUDY    50  18  27 CALM      30.08R
PINE RIVER     CLOUDY    50  27  40 SE10      30.11R
BRAINERD       CLOUDY    48  22  35 SE6       30.09R
STAPLES        CLOUDY    46  36  66 S9        30.08R
LONG PRAIRIE   CLOUDY    43  36  75 S6        30.09R
LITTLE FALLS   CLOUDY    43  36  75 S3        30.09S
LITCHFIELD     DRIZZLE   39  39 100 NE8       30.10S
BUFFALO        LGT RAIN  39  37  90 NE3       30.11S
MAPLE LAKE     RAIN      41  39  91 NE5       30.10S
HUTCHINSON     CLOUDY    40  38  91 NE7       30.11R
$$
MNZ037-044-045-052-053-290200-
   East Central Minnesota

CITY           SKY/WX    TMP DP  RH WIND       PRES   REMARKS
PRINCETON      LGT RAIN  43  39  87 CALM      30.10R
MORA           CLOUDY    45  28  53 CALM      30.10S
CAMBRIDGE      RAIN      45  36  70 NE3       30.07R
RUSH CITY      CLOUDY    46  32  58 CALM      30.08S
MOOSE LAKE     CLOUDY    41  25  52 NE6       30.08S
HINCKLEY       CLOUDY    45  30  57 N8        30.08S
CLOQUET        CLOUDY    41  23  48 E12       30.11R
MCGREGOR       CLOUDY    45  23  42 E6        30.10R
$$
MNZ071>073-080-081-089-090-097-098-290200-
   Southwest Minnesota

CITY           SKY/WX    TMP DP  RH WIND       PRES   REMARKS
MONTEVIDEO     CLOUDY    43  39  87 SE6       30.11R
GRANITE FALLS  CLOUDY    43  38  82 NE6       30.11R
CANBY          CLOUDY    41  40  97 NW3       30.12R
MARSHALL       LGT RAIN  38  37  97 N9        30.10R FOG
REDWOOD FALLS  CLOUDY    41  36  82 NE7       30.09R
OLIVIA         CLOUDY    39  36  87 NE8       30.09R
PIPESTONE      CLOUDY    37  36  93 N5        30.06S
WINDOM         CLOUDY    39  37  93 N5        30.06R
WORTHINGTON    CLOUDY    39  36  89 N9        30.06R
JACKSON        CLOUDY    39  36  87 N8        30.05R
TRACY          CLOUDY    40  38  92 N8        30.08R FOG
SLAYTON        CLOUDY    38  38  99 NE6       30.06R
$$
MNZ065>067-074>077-082>085-091>093-290200-
   South Central Minnesota

CITY           SKY/WX    TMP DP  RH WIND       PRES   REMARKS
MANKATO        CLOUDY    41  36  81 NE12      30.07R
NEW ULM        CLOUDY    39  37  93 NE8       30.08R
ST JAMES       CLOUDY    36  34  93 NE6       30.08R
FAIRMONT       CLOUDY    41  30  65 NE9       30.05R
GLENCOE        CLOUDY    40  37  91 NE6       30.09R
FARIBAULT      CLOUDY    39  37  93 NE8G16    30.06R
OWATONNA       DRIZZLE   39  36  87 NE7       30.05R
WASECA         DRIZZLE   39  36  87 NE9       30.07R
ALBERT LEA     CLOUDY    39  39 100 NE7       30.03R
$$
MNZ078>079-086>088-094>096-290200-
   Southeast Minnesota

CITY           SKY/WX    TMP DP  RH WIND       PRES   REMARKS
ROCHESTER      CLOUDY    40  39  97 NE8       30.03R
RED WING       DRIZZLE   41  37  87 E8G17     30.07R
STANTON        LGT RAIN  40  37  87 NE10      30.06R
DODGE CENTER   CLOUDY    39  37  93 NE8       30.03R
WINONA         CLOUDY    41  37  87 E7        30.05S
AUSTIN         DRIZZLE   41  37  87 NE6       30.03R
PRESTON        CLOUDY    39  36  89 E7        30.03R
$$
ABBREVIATIONS USED IN REMARKS
   TC - TEMPERATURES IN CELSIUS
  WCI - WIND CHILL INDEX
   HX - HEAT INDEX
  VSB - VISIBILITY
$$



USA.gov is the U.S. government's official web portal to all federal, state and local government web resources and services.